Tracking 19792 objects as of 16-Jul-2019
HD Live streaming from Space Station
objects crossing your sky now

CBERS 1 DEB


CBERS 1 DEB is no longer on orbit


NORAD ID: 31590
Int'l Code: 1999-057PM
Perigee: N/A
Apogee: N/A
Inclination: N/A
Period: N/A
Semi major axis: N/A
RCS: N/A
Launch date: October 14, 1999
Source: China/Brazil (CHBZ)
Launch site: Taiyaun Space Center, China (TSC)
Decay date: 2014-03-15

Note: This is SATELLITE DEBRIS
aabbcc
Your satellite tracking list
Your tracking list is empty




NASA's NSSDC Master Catalog

Two Line Element Set (TLE):
1 31590U 99057PM  14073.26288870  .04351926  00000-0  40034-1 0  9996
2 31590 098.2058 087.0691 0021353 167.6720 194.6693 15.63201303367802
Source of the keplerian elements: AFSPC